This is the latest recevied weather packets stored in our database for station/object NC4M. If no packets are shown the sender has not sent any weather packets the latest 10 day(s).
| Time | Temp. | Humidity | Pressure | Rain* | Wind** | Luminosity | Snow |
|---|---|---|---|---|---|---|---|
| 1788106149 | 31.11° C | 44% | 1017.9 hPa | 0 mm | - | 632 W/m² | - |
| 1788105845 | 30.56° C | 43% | 1018.1 hPa | 0 mm | - | 328 W/m² | - |
| 1788105539 | 30.56° C | 45% | 1018.2 hPa | 0 mm | - | 187 W/m² | - |
| 1788105236 | 30.56° C | 49% | 1018 hPa | 0 mm | - | 89 W/m² | - |
| 1788104931 | 30° C | 51% | 1017.9 hPa | 0 mm | - | 347 W/m² | - |
| 1788104627 | 30° C | 50% | 1017.9 hPa | 0 mm | - | 76 W/m² | - |
| 1788104324 | 29.44° C | 53% | 1018.1 hPa | 0 mm | - | 222 W/m² | - |
| 1788104018 | 29.44° C | 49% | 1018.2 hPa | 0 mm | - | 70 W/m² | - |
| 1788103717 | 28.89° C | 52% | 1018 hPa | 0 mm | - | 84 W/m² | - |
| 1788103412 | 28.89° C | 51% | 1018 hPa | 0 mm | - | 216 W/m² | - |
| 1788103112 | 28.33° C | 55% | 1017.8 hPa | 0 mm | - | 87 W/m² | - |
| 1788102812 | 28.33° C | 57% | 1017.8 hPa | 0 mm | - | 61 W/m² | - |
| 1788102507 | 27.78° C | 55% | 1018 hPa | 0 mm | - | 60 W/m² | - |
| 1788102206 | 27.78° C | 55% | 1017.9 hPa | 0 mm | - | 72 W/m² | - |
| 1788101901 | 27.22° C | 58% | 1017.9 hPa | 0 mm | - | 58 W/m² | - |
| 1788101596 | 27.22° C | 56% | 1017.8 hPa | 0 mm | - | 56 W/m² | - |
| 1788101291 | 26.67° C | 59% | 1017.9 hPa | 0 mm | - | 56 W/m² | - |
| 1788100987 | 26.67° C | 57% | 1017.9 hPa | 0 mm | - | 58 W/m² | - |
| 1788100683 | 26.11° C | 61% | 1018 hPa | 0 mm | - | 52 W/m² | - |
| 1788100382 | 26.11° C | 60% | 1017.9 hPa | 0 mm | - | 50 W/m² | - |
| 1788100076 | 25.56° C | 59% | 1017.9 hPa | 0 mm | - | 49 W/m² | - |
| 1788099772 | 25.56° C | 63% | 1017.8 hPa | 0 mm | - | 49 W/m² | - |
| 1788099467 | 25° C | 64% | 1017.8 hPa | 0 mm | - | 46 W/m² | - |
| 1788099162 | 25° C | 65% | 1017.9 hPa | 0 mm | - | 45 W/m² | - |
| 1788098863 | 24.44° C | 62% | 1018 hPa | 0 mm | - | 44 W/m² | - |
* Rain latest hour (hover to see other rain measurements)
** Current wind speed in m/s (hover to see current wind gust speed)